Simultaneous Nadir Overpasses (SNOs) Predictions

Prediction of SNOs over PacNW region [( 10.00, 139.50) to ( 22.70, 165.60)] between AQUA and NPP Satellites:

Table of predicted SNOs over PacNW region for the next 30.0 days since TLE Epoch: 6/4/2022
Index Date (AQUA) Time (AQUA) AQUA Lat,Lon Date (NPP) Time (NPP) NPP Lat,Lon Distance(km) Time Diff (sec)
1 06/04/2022 16:07:41 22.64, 146.13 06/04/2022 16:07:41 23.21, 143.15 311.05 0
2 06/12/2022 15:16:49 22.62, 158.88 06/12/2022 15:17:05 23.28, 155.82 321.70 16
3 06/20/2022 16:04:46 22.62, 146.92 06/20/2022 16:07:56 23.47, 143.14 398.61 190
4 06/23/2022 02:47:16 22.69, 159.41 06/23/2022 02:43:46 26.01, 156.10 498.61 210
5 06/28/2022 15:13:49 22.61, 159.70 06/28/2022 15:17:18 23.61, 155.83 411.28 209
6 07/01/2022 03:35:09 22.68, 147.48 07/01/2022 03:33:32 22.08, 144.38 325.08 97
